www.pogodaiklimat.ru

Погода и климат >> Архив погоды >> Россия >> Чукотка >> Билибино


ПОГОДА в Билибино

  • Прогноз погоды в Билибино
  • Монитор погоды в Билибино

АРХИВ ПОГОДЫ в Билибино

Время (UTC), дата Ветер
(напр.,м/с)
 
Видим.   Явления Облачность Т
(С)
Тd
(С)
f
(%)
Тe
(С)
Тes
(С)
Комфортность P
(гПа)
Po
(гПа)
Тmin
(С)
Tmax
(С)
R
(мм)
R24
(мм)
S
(см)
09 19.04 З 2
{8}
50 км {снег} 9/3 600 м
[Sc Ac trans]
-9.1 -13.6 70 -13 -13 1020.0 983.8 -0.7 3
12 19.04 З 4
{8}
20 км {снег} 10/3 600 м
[Sc Ac trans]
-10.8 -15.2 70 -18 -18 1021.8 985.3
15 19.04 З 4
{7}
10 км снежные кристаллы 10/3 600 м
[Sc As op]
-10.4 -14.0 75 -17 -17 1022.9 986.5
18 19.04 З 2
{13}
50 км {снег, метель} 4/3 600 м
[Sc Ci ing]
-12.8 -17.1 70 -17 -17 1024.1 987.2
21 19.04 З 6
{8}
50 км 3/1 600 м
[Sc Ci ing]
-12.4 -18.6 60 -21 -20 1024.4 987.7 -13.2 0.0 33
00 20.04 З 2
{9}
50 км 1/1 600 м
[Sc]
-10.2 -18.6 50 -15 -8 1023.5 987.1
03 20.04 СЗ 3
{6}
50 км 8/0
[Cs]
-8.8 -18.1 47 -14 -10 1022.3 986.0
06 20.04 З 3
{6}
50 км 10/0
[Ac As]
-9.1 -17.9 49 -15 -14 1021.1 984.9
09 20.04 З 1
{5}
50 км 10/0
[Ac As]
-10.9 -18.2 55 -13 -13 1021.3 984.8 -8.4
12 20.04 С 2
{3}
20 км 4/0
[Ac trans]
-22.1 -24.7 79 -28 -28 1023.5 985.4
15 20.04 СВ 1
{3}
20 км 1/0
[Ac trans]
-27.0 -30.1 75 -31 -31 опасность
обморожения
1025.4 986.4
18 20.04 С 1
{3}
50 км ясно -25.8 -28.2 80 -29 -29 1026.0 987.2
21 20.04 Ю 2
{3}
50 км ясно -13.1 -21.3 50 -18 -14 1024.5 987.6 -28.4 34
00 21.04 З 5
{9}
50 км 1/1 600 м
[Cu hum]
-10.2 -18.6 50 -18 -14 1024.0 978.6
03 21.04 З 1
{10}
50 км 3/1 600 м
[Cu hum Ci fib]
-8.4 -16.7 51 -10 -4 1024.0 987.8
06 21.04 СЗ 4
{11}
50 км ясно -8.0 -16.7 50 -14 -13 1024.1 987.9
09 21.04 С 1
{8}
50 км ясно -17.6 -21.7 70 -20 -20 1026.6 988.9 -7.8
12 21.04 штиль 0
{3}
20 км 1/0
[Ci fib]
-24.6 -27.0 80 -25 -25 1028.1 989.3
15 21.04 штиль 0
{2}
20 км ясно -27.4 -30.4 76 -27 -27 1028.9 989.8
18 21.04 штиль 0
{2}
50 км ясно -26.0 -29.1 75 -26 -26 1028.5 989.6
21 21.04 СВ 3
{6}
50 км ясно -15.5 -22.5 55 -22 -19 1026.4 989.2 -28.7 32
00 22.04 СВ 5
{8}
50 км 1/0
[Ci fib]
-11.1 -19.5 50 -19 -15 1024.9 988.3
03 22.04 СВ 5
{7}
50 км 3/0
[Ci fib]
-8.2 -17.1 49 -15 -12 1023.8 987.7
06 22.04 СВ 4
{7}
50 км 1/0
[Ci fib]
-8.4 -16.0 54 -15 -14 1023.7 987.6
09 22.04 СВ 5
{9}
50 км 4/0
[Ci fib]
-11.8 -17.0 65 -20 -20 1024.4 987.7 -7.7
12 22.04 СВ 4
{8}
20 км 1/0
[Ci fib]
-15.4 -19.6 70 -23 -23 1025.2 988.0
15 22.04 СВ 4
{10}
20 км ясно -17.0 -21.2 70 -25 -25 1025.3 987.8
18 22.04 СВ 5
{9}
50 км ясно -17.4 -21.5 70 -27 -27 1025.3 987.8
21 22.04 СВ 6
{10}
50 км ясно -14.8 -20.8 60 -24 -23 1024.4 987.3 -18.0 32
00 23.04 С 7-11
{11}
50 км ясно -9.3 -17.5 51 -18 -16 1022.8 986.5
03 23.04 С 6
{11}
50 км ясно -5.9 -15.6 46 -13 -11 1021.5 985.6
06 23.04 С 6
{10}
50 км ясно -5.8 -14.8 49 -13 -12 1020.8 985.0
09 23.04 С 6
{11}
50 км ясно -9.4 -16.3 57 -18 -18 1021.2 985.0 -5.3
12 23.04 СВ 5
{10}
20 км ясно -11.4 -17.6 60 -19 -19 1021.6 985.1
15 23.04 СВ 2
{9}
20 км ясно -14.9 -20.0 65 -20 -20 1021.8 984.8
18 23.04 СВ 4
{6}
50 км ясно -15.5 -20.6 65 -23 -23 1021.7 984.7
21 23.04 СВ 3
{7}
50 км ясно -11.3 -19.7 50 -17 -14 1020.4 983.9 -16.7 32
00 24.04 СВ 3
{5}
50 км ясно -5.8 -16.8 41 -11 -5 1018.6 982.9
03 24.04 СВ 1
{4}
50 км ясно -1.7 -15.0 35 -3 +5 1016.8 981.7
06 24.04 СВ 2
{3}
50 км ясно -2.0 -14.3 38 -5 -3 1016.1 981.0
09 24.04 С 2
{3}
50 км ясно -12.2 -18.4 60 -17 -17 1018.0 981.5 -0.5
12 24.04 штиль 0
{2}
20 км ясно -20.0 -22.6 80 -20 -20 1019.6 981.9
15 24.04 штиль 0
{2}
20 км ясно -21.8 -24.3 80 -22 -22 1019.7 981.7
18 24.04 СВ 1
{2}
50 км 9/0
[Ac trans]
-15.0 -17.7 80 -18 -17 1018.5 981.6
21 24.04 СВ 1
{3}
10 км слаб. снег 10/0
[As op]
-10.7 -16.0 65 -13 -12 1017.9 981.6 -22.8 0.0 32
00 25.04 ЮВ 1
{2}
10 км снежные кристаллы 10/4 600 м
[Sc Cs]
-3.6 -11.1 56 -5 -1 1016.3 981.0
03 25.04 В 1
{3}
10 км снежные кристаллы 10/6 600 м
[Sc Cs]
-2.6 -8.7 63 -4 -2 1015.6 980.5
06 25.04 СВ 1
{2}
50 км {снег} 10/6 600 м
[Sc Ac As]
-2.4 -8.0 65 -4 -4 1015.5 980.4
09 25.04 С 1
{2}
50 км 10/0
[Ac und]
-3.1 -7.7 71 -5 -5 1016.0 980.7 -2.1 0.0
12 25.04 штиль 0
{2}
10 км снежные кристаллы 10/0
[Ac As Cs]
-7.4 -9.1 88 -8 -8 1016.9 981.2
15 25.04 штиль 0
{1}
10 км снежные кристаллы 10/0
[Ac As Cs]
-12.1 -13.4 90 -12 -12 1017.7 981.2
18 25.04 штиль 0
{1}
10 км снежные кристаллы 10/0
[Ac As Cs]
-10.3 -11.6 90 -11 -10 1017.4 981.3
21 25.04 СВ 1
{2}
50 км {снег} 9/9 1000 м
[Sc]
-4.1 -8.7 70 -6 -6 1016.1 980.7 -12.2 0.3 30
00 26.04 В 2
{4}
50 км {снег} 8/5 600 м
[Sc Ac trans Ci fib]
-1.6 -9.0 57 -5 -2 1014.8 979.8
03 26.04 В 3
{6}
50 км 6/1 1000 м
[Cu hum Ac trans Ci fib]
0.0 -8.5 53 -4 -0 1012.7 977.9
06 26.04 В 3
{7}
50 км 10/1 1000 м
[Sc As trans]
-0.4 -8.2 56 -5 -4 1010.9 976.2

 

Местоположение метеостанции Билибино (Чукотка, Россия): широта 68.05 долгота 166.40 высота над уровнем моря 280 м.

В архиве по умолчанию представлена погода в Билибино за последнюю неделю. Архивные данные за месяц целиком и за предыдущие месяцы, начиная с января 2011 года, Вы можете получить, выбрав интересующий диапазон дат из раскрывающегося списка и нажав кнопку "Ввод!".


*Определитесь, кто Вы:
робот инопланетянин человек

Внимание! Время в таблицах - всемирное. Для получения местного времени необходимо прибавить поправку, которая равна 12 ч.

Смотрите также архив погоды в соседних городах и на ближайших метеорологических станциях:

Погода в Островном (Чукотка, Россия) (96 км)
Погода в Илирнее (Чукотка, Россия) (109 км)
Погода в Раучуе (Чукотка, Россия) (161 км)
Погода в Баимке (Чукотка, Россия) (194 км)
Погода в Чауне (Чукотка, Россия) (198 км)
Погода в Анюйске (Чукотка, Россия) (205 км)
Погода на Айон Острове (Чукотка, Россия) (217 км)
Погода в Константиновской (Чукотка, Россия) (220 км)
Погода в Черском (Якутия, Россия) (222 км)
Погода в Певеке (Чукотка, Россия) (238 км)

Пояснения к столбцам:

Ветер - указаны скорость ветра в м/с - средняя за 10 мин, порывы в срок и между сроками (в фигурных скобках) и направление, откуда дует ветер: С - северный, СВ - северо-восточный, В - восточный, ЮВ - юго-восточный, Ю - южный, ЮЗ - юго-западный, З - западный, СЗ - северо-западный.
Видимость - горизонтальная дальность видимости в метрах или километрах. При видимости от 1 до 10 км при отсутствии осадков обычно наблюдается дымка, при ухудшении видимости до 1 км и менее - туман. В сухую погоду видимость может ухудшаться дымом, пылью или мглою.
Явления - указаны атмосферные явления, наблюдавшиеся в срок или в последний час перед сроком; фигурными скобками обозначены явления, наблюдавшиеся между сроками (за 1-3 часа до срока); квадратными скобками обозначены град или гололедные отложения с указанием их диаметра в мм.
Облачность - указаны через наклонную черту общая и нижняя облачность в баллах и высота нижней границы облаков в метрах; квадратными скобками обозначены формы облаков: Ci - перистые, Cs - перисто-слоистые, Cc - перисто-кучевые, Ac - высококучевые, As - высокослоистые, Sc - слоисто-кучевые, Ns - слоисто-дождевые, Cu - кучевые, Cb - кучево-дождевые. Подробнее классификацию облаков см. в Атласе облаков (PDF).
T - Температура воздуха - температура, измеренная на высоте 2 м над землей.
Td - Температура точки росы - температура, при понижении до которой содержащийся в воздухе водяной пар достигнет насыщения.
f - Относительная влажность воздуха - влажноcть воздуха, измеренная на высоте 2 м над землей.
Te - Эффективная температура - температура, которую ощущает одетый по сезону человек в тени. Характеристика душности погоды. При расчете учитывается влияние влажности воздуха и скорости ветра на теплоощущения человека.
Tes - Эффективная температура на солнце - температура, которую ощущает человек, с поправкой на солнечный нагрев. Характеристика знойности погоды. Зависит от высоты солнца над горизонтом, облачности и скорости ветра. Ночью, в пасмурную погоду, а также при ветре 12 м/с и более поправка равна нулю.
P - Атмосферное давление - приведенное к уровню моря атмосферное давление.
Po - Атмосферное давление - измеренное на уровне метеостанции атмосферное давление.
Tmin - Минимальная температура - минимум температуры воздуха на высоте 2 м над землей.
Tmax - Максимальная температура - максимум температуры воздуха на высоте 2 м над землей.
R - Количество осадков - Количество выпавших осадков за период времени, мм. При наведении курсора мыши на число - период времени, за который выпало указанное количество осадков.
R24 - Количество осадков - Количество выпавших осадков за 24 часа, мм.
S - Снежный покров - Высота снежного покрова, см. При наведении курсора мыши на число - состояние снежного покрова и степень покрытия местности в баллах.